Location: Dalton
(34.7700°N, 84.9700°W)
Time: 09:05:42
(UTC-04:00)

UWE-3 - Visible Passes

Search period start: 21 May 2018 00:00
Search period end: 31 May 2018 00:00
Orbit: 587 x 683 km, 97.6° (Epoch: 20 May)

Date Brightness Start Highest point End Pass type
(mag) Time Alt. Az. Time Alt. Az. Time Alt. Az.
22 May ? 21:17:49 10° SW 21:20:59 19° W 21:24:13 10° NW visible
23 May ? 21:42:41 10° W 21:43:05 10° W 21:43:30 10° W visible
26 May ? 21:08:28 10° SSW 21:12:06 23° W 21:15:48 10° NW visible
27 May ? 21:32:02 10° WSW 21:34:10 13° W 21:36:20 10° WNW visible
